Location: Roland
(31.1349°N, 85.4372°W)
Time: 08:36:11
(UTC+00:00)

Vanguard 2 Rocket - Pass Details

Date: 20 April 2021
Orbit: 554 x 3326 km, 32.9° (Epoch: 16 May)

Event Time Altitude Azimuth Distance (km) Brightness Sun altitude
Rises 00:12:30 0° 286° (WNW) 7,306 15.4 -0.7°
Reaches altitude 10° 00:17:39 10° 285° (WNW) 6,190 13.4 -1.8°
Maximum altitude 00:36:26 71° 207° (SSW) 2,588 9.2 -5.7°
Drops below altitude 10° 00:47:55 10° 125° (SE) 3,998 9.6 -8.0°
Enters shadow 00:48:33 - 124° (SE) 4,163 9.6 -8.1°
